Location: Ladrillo (historical)
(32.8195°N, 117.2231°W)
Time: 12:00:51
(UTC+00:00)

Cosmos 1110 Rocket - Pass Details

Date: 26 May 2022
Orbit: 751 x 782 km, 74.0° (Epoch: 30 June)

Event Time Altitude Azimuth Distance (km) Brightness Sun altitude
Rises 12:10:45 0° 190° (S) 3,183 6.8 -6.9°
Reaches altitude 10° 12:13:06 10° 188° (S) 2,263 6.1 -6.5°
Maximum altitude 12:18:12 72° 105° (ESE) 791 4.3 -5.6°
Drops below altitude 10° 12:23:21 10° 21° (NNE) 2,284 7.3 -4.6°
Sets 12:25:44 0° 20° (NNE) 3,216 8.1 -4.2°
